This is the latest recevied weather packets stored in our database for station/object WA1OUI. If no packets are shown the sender has not sent any weather packets the latest 10 day(s).
| Time | Temp. | Humidity | Pressure | Rain* | Wind** | Luminosity | Snow |
|---|---|---|---|---|---|---|---|
| 1777553541 | 8.89° C | 98% | 1005.7 hPa | 0.51 mm | - | 29 W/m² | - |
| 1777553236 | 8.89° C | 98% | 1005.8 hPa | 0 mm | - | 30 W/m² | - |
| 1777552933 | 8.89° C | 98% | 1005.7 hPa | 0.51 mm | - | 27 W/m² | - |
| 1777552627 | 8.89° C | 98% | 1005.8 hPa | 0.51 mm | - | 35 W/m² | - |
| 1777552324 | 8.89° C | 98% | 1005.8 hPa | 0 mm | - | 36 W/m² | - |
| 1777552020 | 8.89° C | 98% | 1006.1 hPa | 0 mm | - | 31 W/m² | - |
| 1777551718 | 8.89° C | 98% | 1005.7 hPa | 0 mm | - | 27 W/m² | - |
| 1777551415 | 8.89° C | 98% | 1006 hPa | 0 mm | - | 32 W/m² | - |
| 1777551111 | 8.89° C | 98% | 1005.9 hPa | 0 mm | - | 29 W/m² | - |
| 1777550809 | 8.89° C | 98% | 1006.1 hPa | 0 mm | - | 20 W/m² | - |
| 1777550505 | 8.89° C | 98% | 1006.1 hPa | 0 mm | - | 27 W/m² | - |
| 1777550201 | 8.89° C | 98% | 1006.1 hPa | 0 mm | - | 37 W/m² | - |
| 1777549898 | 8.89° C | 98% | 1006.1 hPa | 0 mm | - | 33 W/m² | - |
| 1777549594 | 8.89° C | 98% | 1006.1 hPa | 0 mm | - | 30 W/m² | - |
| 1777549290 | 8.89° C | 98% | 1006.3 hPa | 0 mm | - | 31 W/m² | - |
| 1777548987 | 8.89° C | 98% | 1006.3 hPa | 0 mm | - | 24 W/m² | - |
| 1777548684 | 8.89° C | 98% | 1006.3 hPa | 0 mm | - | 29 W/m² | - |
| 1777548381 | 8.89° C | 98% | 1006.4 hPa | 0 mm | - | 34 W/m² | - |
| 1777548078 | 8.89° C | 98% | 1006.4 hPa | 0 mm | - | 27 W/m² | - |
| 1777547773 | 8.89° C | 98% | 1006.2 hPa | 0 mm | - | 23 W/m² | - |
| 1777547469 | 8.89° C | 98% | 1006.1 hPa | 0 mm | - | 19 W/m² | - |
| 1777547168 | 8.89° C | 98% | 1006 hPa | 0.51 mm | - | 17 W/m² | - |
| 1777546865 | 8.89° C | 98% | 1006.1 hPa | 0.51 mm | - | 12 W/m² | - |
| 1777546561 | 8.89° C | 98% | 1006.1 hPa | 0 mm | - | 10 W/m² | - |
| 1777546258 | 8.89° C | 98% | 1005.9 hPa | 0 mm | - | 12 W/m² | - |
* Rain latest hour (hover to see other rain measurements)
** Current wind speed in m/s (hover to see current wind gust speed)